星链-2097 (STARLINK-2097 )

导读

STARLINK-2097是美国SpaceX公司星链星座中的一颗低轨通信卫星,于2021年1月20日发射入轨,属于星链第一代组网卫星。它运行在近地轨道,依托相控阵天线和氪离子推进技术,为全球提供高速低延迟的卫星互联网服务,助力填补偏远地区网络覆盖缺口。作为星链大规模组网的组成单元,它是SpaceX构建全球低轨卫星互联网星座的重要一环。

基本信息
目录编号:
47377
目录名称:
STARLINK-2097
国际标识:
2021-005AE
轨道中心:
EARTH
卫星名称:
星链-2097
卫星全名:
星链-2097 (STARLINK-2097 )
卫星状态:
在轨 (已飞行2060 天)
发射日期:
2021-01-20 UTC
国别 :
美国 (US)
星等 :
--
该卫星已列入 空间交会检测服务 Space Conjunction Data Service (SCDS) ,当前飞行风险评估等级: 无高风险
轨道信息
数据来源 国际轨道数据 AOE轨道数据
星历时间 2026-09-10T17:44:29+0800
23小时前
查看轨道信息
2026-09-07T02:00:00+0800
4天前
查看轨道信息
半长轴 6848.846km 6848.855km
偏心率 0.0001309 0.0001338
轨道倾角 53.161° 53.159°
近地点辐角 89.940° 98.852°
升交点赤经 286.665° 303.685°
平近点角 270.175° 251.061°
近地点 469.812km 469.801km
远地点 471.606km 471.635km
周期 94.013分钟 94.013分钟
每日圈数 15.317104 15.317077
详细信息
固有亮度:
5
最大亮度:
2.5
卫星平台:
Starlink V1.0
覆盖范围:
全球
运营商:
太空探索技术公司
运营商所在国:
美国
制造商(研发单位):
太空探索技术公司
制造商所在国:
美国
使用方式:
暂无
卫星简介
星链(Starlink)计划是由太空探索技术公司(SpaceX)提出的一个巨型低轨卫星互联网星座项目,计划在2019年至2024年间在太空搭建由约1.2万颗卫星组成的“星链”网络,其中1584颗将部署在地球上空550千米处的近地轨道,并从2020年开始工作。该卫星仍在工作。
2D轨道图
3D轨道图
轨道高度分析图
轨道倾角分析图
轨道综合分析图
查看轨道综合分析图
交会数据列表
事件ID 空间交会对象 最接近时刻(TCA) 交会距离 交会风险概率(CRP) 交会风险指数(CRI) 操作
CDM_260911-052504-737706-943522
2026-09-11T
05:25:19+0000
2.469 km
极远距离
1.787235E-6 低风险 0.4
CDM_260913-125904-737706-880421
2026-09-13T
12:59:46+0000
2.902 km
极远距离
1.390824E-6 低风险 0.38
CDM_260911-060404-737706-880722
2026-09-11T
06:04:34+0000
2.940 km
极远距离
1.370561E-6 低风险 0.38
CDM_260913-084904-737705-305221
2026-09-13T
08:49:24+0000
2.926 km
极远距离
1.367487E-6 低风险 0.38
CDM_260911-144404-737706-543421
2026-09-11T
14:44:23+0000
2.978 km
极远距离
1.34897E-6 低风险 0.38
CDM_260912-023604-737706-943621
2026-09-12T
02:36:01+0000
2.994 km
极远距离
1.333171E-6 低风险 0.37
CDM_260913-080204-737705-305223
2026-09-13T
08:02:24+0000
2.993 km
极远距离
1.328787E-6 低风险 0.37
CDM_260911-130104-117304-737724
DAMPE (41173)
2026-09-11T
13:01:21+0000
2.593 km
极远距离
1.001923E-6 低风险 0.35
与全量物体交会距离演化趋势
与全量物体交会风险概率演化趋势